User: anonymous   Login
Location: Byszew
(52.1813°N, 19.2693°E)
Time: 14:12:06
(UTC+00:00)
Language:

Cosmos 1666 - Orbit

View from above orbital plane
View from above orbital plane
View from above satellite
View from above satellite

Ground track
Ground track

The orbit data is extracted from the following two-line orbital elements,

1 15889U 85058A   21138.17224486  .00000774  00000-0  34772-4 0  9991
2 15889  82.4890  14.0629 0018070 119.3859 240.9182 15.19465865959311
Epoch (UTC): 18 May 2021 04:08:01
Eccentricity: 0.0018070
inclination: 82.4890°
perigee height: 495 km
apogee height: 520 km
right ascension of ascending node: 14.0629°
argument of perigee: 119.3859°
revolutions per day: 15.19465865
mean anomaly at epoch: 240.9182°
orbit number at epoch: 95931

The dashed part of the orbit path shows where the satellite is in the earth's shadow,  

DLR